Current Version              Previous Version:    01  02  03  04  05  06  07  08  09  10  11  12  13  14  15  16  17  18  19  20  21  22  23  24  25  26  27  28  29  30  
   31  32  33  34  35  36  37  38  39  40  41  42  43  44  45  46  47  48  49  50  51  52  53  54  55  56  57  58  59  60  

[Printable]
658
ASUS44 KFWD 222315
RWRTX
NORTH TEXAS HOURLY WEATHER ROUNDUP
NATIONAL WEATHER SERVICE FORT WORTH TX
600 PM CDT TUE JUL 22 2014

NOTE: "FAIR" INDICATES FEW OR NO CLOUDS BELOW 12,000 FEET WITH NO
SIGNIFICANT WEATHER AND/OR OBSTRUCTIONS TO VISIBILITY.

TXZ118-119-230000-
DALLAS/FORT WORTH METROPLEX

CITY           SKY/WX    TMP DP  RH WIND       PRES   REMARKS
DFW AIRPORT    MOSUNNY   96  67  38 E13       30.01F HX 100
DALLAS LOVE    MOSUNNY   95  69  42 E10       30.01F HX 100
FTW MEACHAM    SUNNY     97  67  37 CALM      30.00F HX 101
DAL-EXECUTIVE  SUNNY     96  70  42 E10       30.02S HX 102
FTW-ALLIANCE   MOSUNNY   94  70  45 E8        30.01F HX 100
FTW-NAS-JRB    MOSUNNY   99  64  31 NE10      30.04F HX 101
FTW-SPINKS     MOSUNNY   97  63  32 E7        30.03F HX  98
ARLINGTON      SUNNY     95  66  38 E8        30.01F HX  98
GRAND PRAIRIE  SUNNY     95  64  36 E10       30.03S HX  97
ADDISON        MOSUNNY   93  68  43 E7        30.03S HX  97
MESQUITE       SUNNY     93  66  40 E6        30.03S HX  96
LANCASTER      MOSUNNY   94  68  42 E8        30.02F HX  98
$$

TXZ091>094-102>105-117-120-121-131>134-230000-
NORTH CENTRAL TEXAS

CITY           SKY/WX    TMP DP  RH WIND       PRES   REMARKS
SHRMAN/DENISON SUNNY     93  69  45 E8        30.06S HX  98
GAINESVILLE    MOSUNNY   92  70  49 E5        30.06F HX  97
BOWIE          MOSUNNY   93  71  47 E5        30.05S HX  99
BRIDGEPORT     MOSUNNY   93  65  39 SE3       30.05S HX  95
DECATUR        SUNNY     93  67  42 E6        30.05S HX  96
DENTON         SUNNY     94  69  44 E6        30.02F HX  99
MCKINNEY       SUNNY     92  70  48 E8        30.03S HX  97
GREENVILLE     MOSUNNY   91  68  46 NE6       30.04S HX  95
ROCKWALL       MOSUNNY   92  73  54 E8        30.02F HX 100
TERRELL        MOSUNNY   93  68  43 E10       30.03F HX  97
WAXAHACHIE     MOSUNNY   92  66  41 NE8       30.03S HX  95
CLEBURNE       MOSUNNY   97  66  36 NE8       30.03S HX 100
GRANBURY       MOSUNNY   98  65  33 SE8       30.02F HX 101
$$

TXZ083>090-098>101-113>116-127>130-139>142-154-155-230000-
WESTERN NORTH TEXAS

CITY           SKY/WX    TMP DP  RH WIND       PRES   REMARKS
WICHITA FALLS  MOSUNNY   95  68  41 SE10      30.02F HX  99
WF-KICKAPOO    SUNNY     95  64  35 E7        30.04S HX  97
VERNON         MOSUNNY   98  62  30 SE5       30.04S HX  99
ABILENE        SUNNY     97  63  32 E9        30.05F HX  98
ABILENE-DYESS  MOSUNNY   96  67  37 E9        30.04F HX 100
BRECKENRIDGE   SUNNY    101  57  23 SE7       30.01F HX 100
MINERAL WELLS  SUNNY     96  68  39 E12       30.01F HX 101
STEPHENVILLE   MOSUNNY   94  65  38 E7        30.07S HX  96
COMANCHE       SUNNY     94  64  36 SE8       30.05S HX  96
BROWNWOOD      LGT RAIN  93  66  40 E8        30.04F HX  96
COLEMAN        SUNNY     95  61  32 SE7       30.06S HX  95
BRADY          SUNNY     93  64  38 E8        30.06S HX  95
$$

TXZ143>147-156>162-174-175-230000-
CENTRAL TEXAS

CITY           SKY/WX    TMP DP  RH WIND       PRES   REMARKS
WACO           SUNNY     95  68  41 E8        29.99F HX  99
WACO-TSTC      SUNNY     95  70  43 E6        29.99F HX 101
WACO-MCGREGOR  PTSUNNY   99  70  39 SE9       30.00S HX 105
HILLSBORO      MOSUNNY   95  67  39 NE6       30.01S HX  98
CORSICANA      MOSUNNY   93  71  48 E6        30.02F HX 100
MEXIA          MOSUNNY   91  73  56 E5        30.01S HX  99
HEARNE         MOSUNNY   98  76  49 E5        29.99F HX 112
CAMERON        MOSUNNY   94  73  50 CALM      29.99S HX 102
TEMPLE         PTSUNNY   93  66  40 SE7       30.01S HX  96
KILLEEN        PTSUNNY   93  64  38 SE5       30.01F HX  95
KILLEEN-SKYLRK MOSUNNY   95  66  38 CALM      30.01S HX  98
FORT HOOD      SUNNY     96  68  39 S5        30.01F HX 101
GATESVILLE     SUNNY     97  66  36 SE3       30.03F HX 100
HAMILTON       PTSUNNY   95  68  40 E7        30.04F HX  99
LAMPASAS       SUNNY     96  69  41 NE6       30.02F HX 101
$$

TXZ095>097-106>112-122>126-135>138-148>153-164>167-230000-
EAST TEXAS

CITY           SKY/WX    TMP DP  RH WIND       PRES   REMARKS
PARIS          MOSUNNY   90  70  51 E7        30.06S HX  95
SULPHUR SPRNGS SUNNY     90  69  49 NE8       30.06S HX  95
CLARKSVILLE    MOSUNNY   91  68  47 E5        30.05S HX  94
MOUNT PLEASANT SUNNY     88  66  48 CALM      30.06S HX  90
GILMER         SUNNY     90  70  51 E5        30.06S HX  95
MINEOLA        SUNNY     90  72  55 NE3       30.04F HX  96
TYLER          SUNNY     91  70  49 NE9       30.03F HX  96
LONGVIEW       MOSUNNY   88  67  49 E6        30.03F HX  91
MARSHALL       MOSUNNY   89  69  52 CALM      30.05F HX  93
ATHENS         SUNNY     90  70  51 NE3       30.01F HX  95
JACKSONVILLE   MOSUNNY   89  69  52 E5        30.06S HX  93
HENDERSON      SUNNY     89  66  46 E6        30.05S HX  91
NACOGDOCHES    SUNNY     90  72  55 NE5       30.03S HX  96
LUFKIN         SUNNY     92  72  51 NE7       30.01F HX  99
$$

SUPPLEMENTAL OBSERVATIONS (CENTRAL)

CITY           SKY/WX    TMP DP  RH WIND       PRES   REMARKS
LAKE TEXOMA      N/A     90  68  48 E5          N/A  HX  93
CADDO GRASSLND   N/A     91  72  52 E5          N/A  HX  98
PAT MAYSE LAKE   N/A     90  70  51 E2          N/A  HX  95
GREENVILLE       N/A     90  70  51 E7          N/A  HX  95
CEDAR HILL       N/A     97  68  38 E3          N/A  HX 101
PALESTINE        N/A     91  73  55 E2          N/A  HX 100
LAKE LIMESTONE   N/A     91  72  52 E7          N/A  HX  98
MCGREGOR         N/A     97  68  38 SE5         N/A  HX 101
TEMPLE           N/A     93  70  46 S6          N/A  HX  99
$$

SUPPLEMENTAL OBSERVATIONS (WEST)

CITY           SKY/WX    TMP DP  RH WIND       PRES   REMARKS
MILLERS CREEK    N/A    100  63  28 SE8         N/A  HX 102
POSSUM KINGDOM   N/A     99  59  26 E9          N/A  HX  98
GRANBURY         N/A     99  66  34 SE8         N/A  HX 102
HAMBY            N/A     97  63  32 E9          N/A  HX  98
IVIE RESERVOIR   N/A     97  64  34 E8          N/A  HX  99
COLORADO BEND    N/A     95  63  34 SE6         N/A  HX  96
$$

SUPPLEMENTAL OBSERVATIONS (EAST)

CITY           SKY/WX    TMP DP  RH WIND       PRES   REMARKS
CLARKSVILLE      N/A     90  70  51 NE3         N/A  HX  95
TEXARKANA        N/A     91  66  43 NE2         N/A  HX  94
LINDEN           N/A     90  66  45 E3          N/A  HX  92
CADDO LAKE       N/A     90  68  48 E2          N/A  HX  93
GILMER           N/A     90  66  45 E3          N/A  HX  92
HENDERSON        N/A     90  66  45 E5G13       N/A  HX  92
LUFKIN           N/A     90  73  58 MISG        N/A  HX  98
N SABINE NF      N/A     90  70  51 MISG        N/A  HX  95
S SABINE NF      N/A     90  70  51 NW2         N/A  HX  95
$$

SUPPLEMENTAL OBSERVATIONS ARE A COLLECTION OF AUTOMATED INSTRUMENTS
THAT ARE MAINTAINED BY A VARIETY OF FEDERAL AND STATE AGENCIES.
CERTAIN ELEMENTS...SUCH AS HUMIDITY VALUES AND SUSTAINED WIND
SPEEDS...MAY BE APPROXIMATED.